Time,TemperatureF,DewpointF,PressureIn,WindDirection,WindDirectionDegrees,WindSpeedMPH,WindSpeedGustMPH,Humidity,HourlyPrecipIn,Conditions,Clouds,dailyrainin,SoftwareType,DateUTC
2013-12-01 00:13:00,32.0,27.1,30.13,NE,45,0.0,-999.0,82,-99.99,,,0.00,Acu-Link.com,2013-12-01 05:13:00,
2013-12-01 03:08:00,32.0,27.1,30.12,NE,45,0.0,-999.0,82,-99.99,,,0.00,Acu-Link.com,2013-12-01 08:08:00,
2013-12-01 03:23:00,32.0,27.1,30.12,East,90,0.0,-999.0,82,-99.99,,,0.00,Acu-Link.com,2013-12-01 08:23:00,
2013-12-01 03:38:00,32.0,27.4,30.08,East,90,1.6,-999.0,83,-99.99,,,0.00,Acu-Link.com,2013-12-01 08:38:00,
2013-12-01 03:53:00,32.0,27.4,30.08,ENE,67,0.0,-999.0,83,-99.99,,,0.00,Acu-Link.com,2013-12-01 08:53:00,
2013-12-01 04:08:00,32.0,27.4,30.07,SSW,202,0.0,-999.0,83,-99.99,,,0.00,Acu-Link.com,2013-12-01 09:08:00,
2013-12-01 04:23:00,32.0,27.4,30.07,ESE,112,1.1,-999.0,83,-99.99,,,0.00,Acu-Link.com,2013-12-01 09:23:00,
2013-12-01 04:38:00,32.0,27.7,30.06,East,90,2.0,-999.0,84,-99.99,,,0.00,Acu-Link.com,2013-12-01 09:38:00,
2013-12-01 04:53:00,32.0,28.0,30.07,West,270,0.0,-999.0,85,-99.99,,,0.00,Acu-Link.com,2013-12-01 09:53:00,
2013-12-01 05:08:00,32.0,28.0,30.07,ESE,112,0.0,-999.0,85,-99.99,,,0.00,Acu-Link.com,2013-12-01 10:08:00,
2013-12-01 05:24:00,32.0,28.0,30.07,ENE,67,1.1,-999.0,85,-99.99,,,0.00,Acu-Link.com,2013-12-01 10:24:00,
2013-12-01 05:39:00,32.0,27.7,30.06,South,180,0.0,-999.0,84,-99.99,,,0.00,Acu-Link.com,2013-12-01 10:39:00,
2013-12-01 05:54:00,33.8,28.9,30.06,ESE,112,0.0,-999.0,82,-99.99,,,0.00,Acu-Link.com,2013-12-01 10:54:00,
2013-12-01 06:09:00,33.8,29.2,30.06,East,90,0.0,-999.0,83,-99.99,,,0.00,Acu-Link.com,2013-12-01 11:09:00,
2013-12-01 06:24:00,33.8,29.5,30.06,ESE,112,0.0,-999.0,84,-99.99,,,0.00,Acu-Link.com,2013-12-01 11:24:00,
2013-12-01 06:39:00,33.8,29.2,30.06,SE,135,0.0,-999.0,83,-99.99,,,0.00,Acu-Link.com,2013-12-01 11:39:00,
2013-12-01 06:54:00,33.8,29.2,30.06,ESE,112,0.0,-999.0,83,-99.99,,,0.00,Acu-Link.com,2013-12-01 11:54:00,
2013-12-01 07:10:00,33.8,28.9,30.05,East,90,0.0,-999.0,82,-99.99,,,0.00,Acu-Link.com,2013-12-01 12:10:00,
2013-12-01 07:25:00,33.8,28.6,30.05,ESE,112,0.0,-999.0,81,-99.99,,,0.00,Acu-Link.com,2013-12-01 12:25:00,
2013-12-01 07:40:00,33.8,28.6,30.05,ESE,112,0.0,-999.0,81,-99.99,,,0.00,Acu-Link.com,2013-12-01 12:40:00,
2013-12-01 07:55:00,33.8,28.3,30.05,NW,315,0.0,-999.0,80,-99.99,,,0.00,Acu-Link.com,2013-12-01 12:55:00,
2013-12-01 08:10:00,35.6,30.1,30.05,SE,135,0.0,-999.0,80,-99.99,,,0.00,Acu-Link.com,2013-12-01 13:10:00,
2013-12-01 08:25:00,35.6,30.1,30.05,SE,135,1.6,-999.0,80,-99.99,,,0.00,Acu-Link.com,2013-12-01 13:25:00,
2013-12-01 08:40:00,35.6,29.7,30.05,East,90,0.0,-999.0,79,-99.99,,,0.00,Acu-Link.com,2013-12-01 13:40:00,
2013-12-01 08:55:00,35.6,29.4,30.05,East,90,1.1,-999.0,78,-99.99,,,0.00,Acu-Link.com,2013-12-01 13:55:00,
2013-12-01 09:10:00,35.6,29.1,30.05,NNE,22,0.0,-999.0,77,-99.99,,,0.00,Acu-Link.com,2013-12-01 14:10:00,
2013-12-01 09:26:00,37.4,30.2,30.05,SE,135,3.1,-999.0,75,-99.99,,,0.01,Acu-Link.com,2013-12-01 14:26:00,
2013-12-01 09:41:00,37.4,29.6,30.05,NNW,337,0.0,-999.0,73,-99.99,,,0.01,Acu-Link.com,2013-12-01 14:41:00,
2013-12-01 09:56:00,39.2,30.9,30.05,West,270,0.0,-999.0,72,-99.99,,,0.01,Acu-Link.com,2013-12-01 14:56:00,
2013-12-01 10:11:00,39.2,30.6,30.05,East,90,0.0,-999.0,71,-99.99,,,0.01,Acu-Link.com,2013-12-01 15:11:00,
2013-12-01 10:27:00,41.0,32.0,30.04,ESE,112,0.0,-999.0,70,-99.99,,,0.02,Acu-Link.com,2013-12-01 15:27:00,
2013-12-01 10:42:00,41.0,31.3,30.04,SSW,202,1.6,-999.0,68,-99.99,,,0.02,Acu-Link.com,2013-12-01 15:42:00,
2013-12-01 10:57:00,41.0,31.6,30.04,SW,225,1.6,-999.0,69,-99.99,,,0.04,Acu-Link.com,2013-12-01 15:57:00,
2013-12-01 11:12:00,39.2,30.6,30.04,ESE,112,0.0,-999.0,71,-99.99,,,0.04,Acu-Link.com,2013-12-01 16:12:00,
2013-12-01 11:27:00,41.0,32.0,30.02,NNE,22,0.0,-999.0,70,-99.99,,,0.04,Acu-Link.com,2013-12-01 16:27:00,
2013-12-01 11:42:00,41.0,31.6,30.02,SSW,202,0.0,-999.0,69,-99.99,,,0.04,Acu-Link.com,2013-12-01 16:42:00,
2013-12-01 11:57:00,41.0,32.0,30.01,SE,135,0.0,-999.0,70,-99.99,,,0.05,Acu-Link.com,2013-12-01 16:57:00,
2013-12-01 12:13:00,41.0,31.6,30.01,ESE,112,0.0,-999.0,69,-99.99,,,0.05,Acu-Link.com,2013-12-01 17:13:00,
2013-12-01 12:28:00,42.8,32.6,30.01,SSE,157,0.0,-999.0,67,-99.99,,,0.05,Acu-Link.com,2013-12-01 17:28:00,
2013-12-01 12:43:00,42.8,31.5,30.00,SW,225,0.0,-999.0,64,-99.99,,,0.06,Acu-Link.com,2013-12-01 17:43:00,
2013-12-01 12:58:00,42.8,31.9,30.00,SSW,202,1.1,-999.0,65,-99.99,,,0.06,Acu-Link.com,2013-12-01 17:58:00,
2013-12-01 13:13:00,42.8,31.9,29.99,SW,225,0.0,-999.0,65,-99.99,,,0.07,Acu-Link.com,2013-12-01 18:13:00,
2013-12-01 13:28:00,42.8,32.2,29.98,South,180,0.0,-999.0,66,-99.99,,,0.07,Acu-Link.com,2013-12-01 18:28:00,
2013-12-01 13:43:00,42.8,32.6,29.98,SE,135,3.6,-999.0,67,-99.99,,,0.07,Acu-Link.com,2013-12-01 18:43:00,
2013-12-01 13:58:00,42.8,32.6,29.98,ENE,67,0.0,-999.0,67,-99.99,,,0.07,Acu-Link.com,2013-12-01 18:58:00,
2013-12-01 14:13:00,42.8,32.6,29.97,SSW,202,0.0,-999.0,67,-99.99,,,0.07,Acu-Link.com,2013-12-01 19:13:00,
2013-12-01 14:28:00,42.8,32.6,29.98,WSW,247,0.0,-999.0,67,-99.99,,,0.07,Acu-Link.com,2013-12-01 19:28:00,
2013-12-01 14:44:00,42.8,32.6,29.97,SW,225,0.0,-999.0,67,-99.99,,,0.08,Acu-Link.com,2013-12-01 19:44:00,
2013-12-01 14:59:00,42.8,33.0,29.98,WSW,247,1.6,-999.0,68,-99.99,,,0.08,Acu-Link.com,2013-12-01 19:59:00,
2013-12-01 15:29:00,42.8,33.3,29.97,NE,45,0.0,-999.0,69,-99.99,,,0.08,Acu-Link.com,2013-12-01 20:29:00,
2013-12-01 15:44:00,42.8,34.1,29.96,ESE,112,0.0,-999.0,71,-99.99,,,0.08,Acu-Link.com,2013-12-01 20:44:00,
2013-12-01 16:00:00,41.0,32.3,29.96,SSE,157,0.0,-999.0,71,-99.99,,,0.08,Acu-Link.com,2013-12-01 21:00:00,
2013-12-01 16:15:00,41.0,32.3,29.95,NE,45,0.0,-999.0,71,-99.99,,,0.08,Acu-Link.com,2013-12-01 21:15:00,
2013-12-01 16:30:00,41.0,32.7,29.96,East,90,0.0,-999.0,72,-99.99,,,0.08,Acu-Link.com,2013-12-01 21:30:00,
2013-12-01 16:45:00,37.4,29.9,29.96,NE,45,0.0,-999.0,74,-99.99,,,0.08,Acu-Link.com,2013-12-01 21:45:00,
2013-12-01 17:00:00,37.4,30.9,29.97,East,90,0.0,-999.0,77,-99.99,,,0.08,Acu-Link.com,2013-12-01 22:00:00,
2013-12-01 17:16:00,35.6,29.7,29.97,ENE,67,0.0,-999.0,79,-99.99,,,0.08,Acu-Link.com,2013-12-01 22:16:00,
2013-12-01 17:31:00,33.8,28.9,29.97,ENE,67,0.0,-999.0,82,-99.99,,,0.08,Acu-Link.com,2013-12-01 22:31:00,
2013-12-01 17:46:00,33.8,29.5,29.96,East,90,0.0,-999.0,84,-99.99,,,0.08,Acu-Link.com,2013-12-01 22:46:00,
2013-12-01 18:01:00,33.8,29.8,29.97,East,90,0.0,-999.0,85,-99.99,,,0.08,Acu-Link.com,2013-12-01 23:01:00,
2013-12-01 18:16:00,33.8,29.8,29.97,East,90,0.0,-999.0,85,-99.99,,,0.08,Acu-Link.com,2013-12-01 23:16:00,
2013-12-01 18:31:00,33.8,30.1,29.97,NE,45,0.0,-999.0,86,-99.99,,,0.08,Acu-Link.com,2013-12-01 23:31:00,
2013-12-01 18:46:00,32.0,28.9,29.97,East,90,0.0,-999.0,88,-99.99,,,0.08,Acu-Link.com,2013-12-01 23:46:00,
2013-12-01 19:02:00,32.0,29.1,29.96,ESE,112,0.0,-999.0,89,-99.99,,,0.08,Acu-Link.com,2013-12-02 00:02:00,
2013-12-01 19:17:00,32.0,29.4,29.97,East,90,0.0,-999.0,90,-99.99,,,0.08,Acu-Link.com,2013-12-02 00:17:00,
2013-12-01 19:32:00,32.0,29.9,29.96,East,90,0.0,-999.0,92,-99.99,,,0.08,Acu-Link.com,2013-12-02 00:32:00,
2013-12-01 19:47:00,32.0,29.9,29.97,SSE,157,0.0,-999.0,92,-99.99,,,0.08,Acu-Link.com,2013-12-02 00:47:00,
2013-12-01 20:02:00,32.0,30.5,29.97,ESE,112,0.0,-999.0,94,-99.99,,,0.08,Acu-Link.com,2013-12-02 01:02:00,
2013-12-01 20:17:00,32.0,30.5,29.97,ESE,112,0.0,-999.0,94,-99.99,,,0.08,Acu-Link.com,2013-12-02 01:17:00,
2013-12-01 20:32:00,32.0,30.5,29.96,East,90,0.0,-999.0,94,-99.99,,,0.08,Acu-Link.com,2013-12-02 01:32:00,
2013-12-01 20:47:00,32.0,30.5,29.96,East,90,0.0,-999.0,94,-99.99,,,0.08,Acu-Link.com,2013-12-02 01:47:00,
2013-12-01 21:03:00,32.0,30.5,29.96,East,90,0.0,-999.0,94,-99.99,,,0.08,Acu-Link.com,2013-12-02 02:03:00,
2013-12-01 21:18:00,32.0,30.5,29.96,SE,135,0.0,-999.0,94,-99.99,,,0.08,Acu-Link.com,2013-12-02 02:18:00,
2013-12-01 21:33:00,32.0,30.5,29.96,ESE,112,0.0,-999.0,94,-99.99,,,0.08,Acu-Link.com,2013-12-02 02:33:00,
2013-12-01 21:48:00,32.0,30.5,29.95,SE,135,0.0,-999.0,94,-99.99,,,0.08,Acu-Link.com,2013-12-02 02:48:00,
2013-12-01 22:03:00,32.0,30.5,29.95,SSE,157,0.0,-999.0,94,-99.99,,,0.08,Acu-Link.com,2013-12-02 03:03:00,
2013-12-01 22:18:00,32.0,30.5,29.95,East,90,0.0,-999.0,94,-99.99,,,0.08,Acu-Link.com,2013-12-02 03:18:00,
2013-12-01 22:33:00,32.0,30.5,29.94,NE,45,0.0,-999.0,94,-99.99,,,0.08,Acu-Link.com,2013-12-02 03:33:00,
2013-12-01 22:48:00,32.0,30.5,29.95,WNW,292,0.0,-999.0,94,-99.99,,,0.08,Acu-Link.com,2013-12-02 03:48:00,
2013-12-01 23:03:00,32.0,30.2,29.94,NNE,22,0.0,-999.0,93,-99.99,,,0.08,Acu-Link.com,2013-12-02 04:03:00,
2013-12-01 23:18:00,32.0,30.2,29.94,SE,135,0.0,-999.0,93,-99.99,,,0.08,Acu-Link.com,2013-12-02 04:18:00,
2013-12-01 23:33:00,32.0,30.2,29.94,SSE,157,0.0,-999.0,93,-99.99,,,0.08,Acu-Link.com,2013-12-02 04:33:00,
2013-12-01 23:48:00,32.0,30.2,29.94,East,90,0.0,-999.0,93,-99.99,,,0.08,Acu-Link.com,2013-12-02 04:48:00,